Terminal Aerodrome Forecast
Issued by NWS

Current Version | Previous Version | Graphics & Text | Print | Product List | Glossary On
Versions: 1 2 3 4 5 6 7 8 9 10 11 12 13 14 15 16 17 18 19 20 21
000
FTUS41 KILN 242221 AAA
TAFLCK
TAF AMD
KLCK 242221Z 2422/2518 19012G20KT P6SM BKN060
     FM250300 19014G22KT 6SM -SHRA VCTS OVC040CB
      TEMPO 2503/2506 4SM TSRA BR OVC025CB
     FM250800 28012G20KT P6SM VCSH OVC040
     FM251000 28012G20KT P6SM OVC045
     FM251400 26016G26KT P6SM OVC025=

USA.gov is the U.S. government's official web portal to all federal, state and local government web resources and services.